Startseite
Über Mich
AHP4
Galerie
Sehschlangen
Tourenbuch
Bookmarks
Elektronik
Bewertung
Geschichten
[Tagesmessung] [Jahreswerte] [Information]

Messwerte vom 24.02.2022

Die letzten Messwerte von 23:58:45 Uhr:
KategorieMesswert
Temperatur [°C]3
Luftdruck [mBar]995
Sonneneinstrahlung0
Wind [km/h]0 aus Nord
Niederschlag [l/m²]0
rel.Luftfeucht.90.1%
CO2 [ppm]419

Diagramme
Messwerte vom 24.02.2022
Tagesaggregation
KategorieMinimumMaximumSchnittSumme
Temperatur [°C]3127.0875
Luftdruck [mBar]9871003994.3521
Sonneneinstrahlung23984.1500
Wind [km/h]0
rF [%]58.896.675.39
Niederschlag [l/m²]0.2575
CO2 [ppm]410772566.9
Einordnung alsVegetationstag

Messungen an benachbarten Tagen: Zur Jahresaggregation 2022
Tabelle aller Messwerte
UhrzeitTemperatur [°C]Luftdruck [mBar]SonneWind [km/h]RichtungRegen [l/m²]rF [%]CO2 [ppm]
00:01:47 5 1003 0 0 SW 0 75.7 556
00:04:46 5 1003 0 0 SW 0 75.3 557
00:07:45 5 1002 0 0 W 0 74.9 559
00:10:46 5 1003 0 0 S 0 75 559
00:13:48 5 1003 0 0 S 0 74.8 565
00:16:45 5 1003 0 0 S 0 74.6 576
00:19:46 5 1003 0 0 O 0 74.8 579
00:22:46 5 1002 0 0 S 0 74.5 580
00:25:49 5 1002 0 0 S 0 74.6 580
00:28:46 5 1002 0 0 SO 0 74.6 583
00:31:47 5 1002 0 0 S 0 74.7 583
00:34:47 5 1002 0 0 SW 0 74.6 583
00:37:48 5 1002 0 0 SO 0 74.5 586
00:40:49 5 1002 0 0 SO 0 74.1 592
00:43:52 5 1002 0 0 SO 0 73.5 603
00:46:46 5 1002 0 0 S 0 73.4 604
00:49:45 5 1002 0 0 SO 0 73.4 611
00:52:48 5 1002 0 0 SO 0 73.6 615
00:55:47 5 1002 0 0 SW 0 73.7 616
00:58:45 5 1002 0 0 S 0 73.5 618
01:01:49 5 1002 0 0 SO 0 73 608
01:04:46 5 1002 0 0 S 0 73.1 615
01:07:47 5 1002 0 0 SW 0 73.3 618
01:10:45 5 1002 0 0 SW 0 73.6 617
01:13:47 5 1002 0 0 SO 0 74.3 613
01:16:47 5 1002 0 0 SO 0 74.3 615
01:19:45 5 1002 0 0 S 0 74.4 612
01:22:46 5 1002 0 0 S 0 74.5 624
01:25:46 4 1002 0 0 S 0 74.8 623
01:28:49 4 1002 0 0 SW 0 75.2 620
01:31:47 4 1002 0 0 S 0 75.7 620
01:34:46 4 1002 0 0 O 0 76 623
01:37:48 4 1002 0 0 S 0 76.3 629
01:40:45 4 1002 0 0 O 0 76.6 618
01:43:48 4 1002 0 0 SW 0 76.7 620
01:46:47 4 1002 0 0 S 0 76.9 617
01:49:46 4 1001 0 0 S 0 76.9 630
01:52:47 4 1002 0 0 S 0 76.8 630
01:55:45 4 1002 0 0 S 0 76.8 633
01:58:46 4 1002 0 0 SW 0 76.9 630
02:01:46 4 1002 0 0 SO 0 77.1 633
02:04:47 4 1002 0 0 SO 0 77.2 635
02:07:45 4 1002 0 0 S 0 77.1 632
02:10:47 4 1002 0 0 S 0 76.9 636
02:13:48 4 1002 0 0 S 0 76.8 638
02:16:45 4 1002 0 0 S 0 76.7 641
02:19:49 4 1002 0 0 S 0 76.5 653
02:22:45 4 1001 0 0 SO 0 76.5 652
02:25:45 4 1002 0 0 W 0 76.5 641
02:28:48 4 1001 0 0 SO 0 76.5 645
02:31:49 4 1002 0 0 SW 0 76.6 648
02:34:49 5 1001 0 0 SW 0 76.4 650
02:37:46 5 1001 0 0 S 0 76.3 648
02:40:47 5 1001 0 0 SO 0 76.1 642
02:43:44 5 1001 0 0 S 0 76.2 644
02:46:49 5 1000 0 0 SO 0 76.2 645
02:49:48 5 1000 0 0 SO 0 76.2 650
02:52:47 5 1001 0 0 N 0 76 654
02:55:50 5 1001 0 0 SW 0 76 653
02:58:48 5 1001 0 0 SO 0 76.1 648
03:01:47 5 1000 0 0 SW 0 76.3 644
03:04:47 5 1001 0 0 S 0 76.5 645
03:07:47 5 1000 0 0 SO 0 76.7 653
03:10:46 5 1000 0 0 S 0 77 653
03:13:48 5 1000 0 0 SO 0 77 649
03:16:45 5 1000 0 0 O 0 77.2 650
03:19:45 5 999 0 0 S 0 77.3 644
03:22:45 5 1000 0 0 S 0 77.3 647
03:25:48 5 1000 0 0 SO 0 76.4 642
03:28:48 5 999 0 0 S 0 76.3 655
03:31:44 5 1000 0 0 S 0 76.3 656
03:34:47 5 999 0 0 SO 0 76.2 654
03:37:47 5 999 0 0 S 0 76 642
03:40:47 5 1000 0 0 S 0 76 648
03:43:45 5 999 0 0 S 0 76 656
03:46:45 5 999 0 0 S 0 76.1 653
03:49:48 5 999 0 0 SW 0 76.5 659
03:52:49 5 999 0 0 SO 0 76.6 652
03:55:44 5 999 0 0 O 0 76.7 652
03:58:47 5 999 0 0 SO 0 77.1 649
04:01:46 5 999 0 0 O 0 77.2 650
04:04:45 5 999 0 0 S 0 77.1 647
04:07:46 5 999 0 0 S 0 76.5 662
04:10:45 6 999 0 0 S 0 76.3 663
04:13:46 6 999 0 0 SW 0 75.3 659
04:16:45 6 998 0 0 SO 0 74.6 656
04:19:46 6 999 0 0 SW 0 74.1 659
04:22:46 6 999 0 0 S 0 74.1 662
04:25:47 6 999 0 0 SO 0 74.2 663
04:28:47 6 998 0 0 S 0 74.3 665
04:31:47 6 998 0 0 SO 0 74.5 667
04:34:48 6 998 0 0 SW 0 74.7 671
04:37:47 6 999 0 0 SO 0 74.6 673
04:40:45 6 998 0 0 S 0 74.5 675
04:43:45 6 998 0 0 S 0 74.2 671
04:46:48 6 998 0 0 SO 0 73.7 665
04:49:48 6 998 0 0 S 0 73.3 677
04:52:51 6 998 0 0 SO 0 72.7 678
04:55:46 7 998 0 0 SO 0 71.2 677
04:58:46 7 998 0 0 S 0 70.1 669
05:01:49 7 999 0 0 S 0 69.2 675
05:04:47 7 998 0 0 S 0 69.3 689
05:07:45 7 998 0 0 S 0 69.9 691
05:10:49 7 998 0 0 SO 0 70.6 692
05:13:45 6 998 0 0 S 0 71.3 685
05:16:48 6 998 0 0 SO 0 72.3 688
05:19:47 6 998 0 0 S 0 72.7 685
05:22:47 6 998 0 0 SO 0 72.9 692
05:25:46 6 998 0 0 SO 0 73.4 688
05:28:47 6 998 0 0 SO 0 73.8 691
05:31:47 6 998 0 0 SO 0 73.9 691
05:34:46 6 998 0 0 SW 0 74.1 696
05:37:48 6 998 0 0 SO 0 74.4 692
05:40:43 6 998 0 0 S 0 74.4 697
05:43:46 6 998 0 0 S 0 74.5 696
05:46:45 6 998 0 0 S 0 74.1 696
05:49:45 6 998 0 0 S 0 74.1 690
05:52:46 6 998 0 0 S 0 73.9 682
05:55:46 6 998 0 0 SO 0 74 682
05:58:45 7 998 0 0 S 0 73.5 676
06:01:46 7 998 0 0 S 0 73 661
06:04:44 7 998 0 0 S 0 72.5 652
06:07:45 7 998 0 0 W 0 71.5 670
06:10:46 7 998 0 0 O 0 71.6 689
06:13:47 7 998 0 0 SW 0 71.6 688
06:16:48 7 998 0 0 W 0 71.6 688
06:19:46 7 998 0 0 SW 0 71.6 700
06:22:47 7 998 0 0 SO 0 71.6 708
06:25:46 7 998 0 0 SO 0 71.7 696
06:28:47 7 998 0 0 S 0 71.7 697
06:31:48 7 998 0 0 SO 0 71.5 700
06:34:47 7 998 0 0 S 0 71.5 703
06:37:48 7 998 0 0 SO 0 71.8 705
06:40:48 7 998 0 0 S 0 72 705
06:43:46 7 998 0 0 S 0 72.2 718
06:46:48 7 998 0 0 S 0 72.2 724
06:49:47 7 998 0 0 SO 0 72.4 726
06:52:46 7 998 0 0 SW 0 72.4 725
06:55:46 7 998 3 0 S 0 72.5 730
06:58:46 7 998 5 0 SW 0 72.4 730
07:01:46 7 998 7 0 S 0 72.2 726
07:04:49 7 998 10 0 SW 0 72.6 723
07:07:44 7 997 13 0 S 0 73.1 714
07:10:48 7 998 18 0 SW 0 73.6 706
07:13:47 7 998 23 0 SO 0 73.8 697
07:16:47 7 998 30 0 SO 0 73.8 705
07:19:46 7 998 36 0 SO 0 74.3 705
07:22:45 7 998 44 0 O 0 74.4 711
07:25:49 7 998 52 0 SW 0 74.4 720
07:28:45 7 998 57 0 SO 0 74.1 726
07:31:49 7 998 61 0 SO 0 74.2 720
07:34:48 7 998 64 0 SO 0 74.2 726
07:37:47 7 998 66 0 SW 0 74.1 731
07:40:49 7 997 69 0 W 0 73.7 738
07:43:45 7 997 71 0 SW 0 73.5 746
07:46:48 7 997 82 0 S 0 73.3 749
07:49:47 7 998 93 0 SO 0 73.4 746
07:52:47 7 998 109 0 S 0 72.9 745
07:55:47 7 998 122 0 SW 0 72.6 739
07:58:45 7 997 121 0 O 0 73 732
08:01:49 7 996 120 0 S 0 73.2 729
08:04:47 7 997 120 0 SO 0 73.6 731
08:07:49 7 997 122 0 N 0 73.9 729
08:10:50 7 998 120 0 SO 0 74.2 718
08:13:47 7 997 133 0 SO 0 74.8 717
08:16:48 7 998 138 0 S 0 75.2 715
08:19:51 7 997 138 0 O 0 75.6 708
08:22:47 7 996 143 0 S 0 75.5 695
08:25:46 7 997 158 0 S 0 74.1 694
08:28:48 7 997 57 0 SO 0 72.4 700
08:31:49 7 997 164 0 S 0 71.8 556
08:34:45 7 997 165 0 O 0 71 563
08:37:48 8 997 162 0 S 0 70.6 653
08:40:49 8 997 163 0 S 0 70.4 677
08:43:48 8 997 167 0 SW 0 70.2 656
08:46:45 8 997 171 0 W 0 69.8 641
08:49:47 8 997 175 0 SO 0 69.1 633
08:52:46 8 997 179 0 SO 0 69.1 633
08:55:50 8 997 180 0 W 0 69.3 644
08:58:49 8 996 181 0 SO 0 69.2 653
09:01:48 8 996 183 0 SW 0 69 656
09:04:46 8 997 184 0 W 0 69.9 661
09:07:48 8 996 187 0 S 0 70.1 671
09:10:49 8 996 184 0 SW 0 70 674
09:13:48 8 997 183 0 SW 0 70.6 670
09:16:49 8 997 184 0 SW 0 71 676
09:19:48 8 996 183 0 SO 0 71.9 680
09:22:49 8 997 182 0 SO 0 72.4 683
09:25:48 8 995 184 0 S 0 72.7 685
09:28:49 8 995 181 0 SO 0 73 702
09:31:47 8 995 171 0 SO 0 73.4 724
09:34:48 8 996 171 0 SO 0 73.4 729
09:37:48 7 996 178 0 S 0 73.7 730
09:40:47 7 995 178 0 S 0 73.8 729
09:43:48 7 996 180 0 SO 0 74.4 733
09:46:48 7 996 173 0 SO 0 74.6 739
09:49:46 7 996 173 0 SO 0 74.9 744
09:52:46 7 996 174 0 S 0 75.3 742
09:55:46 7 996 172 0 SO 0 75.3 751
09:58:47 7 996 175 0 SO 0 75.2 753
10:01:46 7 995 178 0 SO 0 75.7 755
10:04:48 7 996 178 0 S 0 75.8 761
10:07:47 7 995 183 0 SO 0 75.9 770
10:10:47 7 995 183 0 SO 0 75.9 772
10:13:49 7 995 189 0 SO 0 75.6 766
10:16:46 7 995 195 0 SO 0 75.4 750
10:19:47 7 995 198 0 SO 0 75.9 691
10:22:51 8 995 198 0 SO 0 75.8 659
10:25:47 8 995 198 0 SW 0 75.9 685
10:28:49 8 995 195 0 SO 0 75.7 689
10:31:46 8 995 198 0 S 0 75.3 567
10:34:45 8 995 204 0 SO 0 75 544
10:37:48 8 995 211 0 S 0 74.8 623
10:40:48 8 995 213 0 SO 0 75.2 667
10:43:48 8 995 214 0 SO 0 74.4 688
10:46:45 8 995 214 0 S 0 72.7 679
10:49:47 9 995 214 0 S 0 72.4 665
10:52:45 9 995 213 0 S 0 71 661
10:55:47 9 995 212 0 S 0 70.4 650
10:58:48 9 995 213 0 SO 0 70 641
11:01:47 9 995 212 0 S 0 69.7 635
11:04:46 9 995 216 0 SO 0 68.6 639
11:07:48 9 995 219 0 SO 0 69.5 638
11:10:48 9 995 218 0 SW 0 69.8 632
11:13:48 9 995 217 0 SO 0 69.4 621
11:16:48 10 994 221 0 S 0 68.9 624
11:19:49 10 995 221 0 SO 0 67.7 612
11:22:47 10 995 220 0 S 0 67.1 610
11:25:49 10 995 222 0 S 0 66.4 609
11:28:49 10 994 223 0 S 0 66 609
11:31:49 10 995 222 0 SO 0 65.6 609
11:34:47 10 995 221 0 S 0 64.2 617
11:37:47 10 995 219 0 S 0 63.7 612
11:40:50 10 994 218 0 SO 0 63.2 609
11:43:49 10 995 219 0 S 0 63 609
11:46:48 10 994 218 0 SO 0 63.5 609
11:49:48 10 994 222 0 NW 0 64.4 618
11:52:46 10 994 223 0 SO 0 64.1 616
11:55:46 11 993 222 0 S 0 63.4 606
11:58:47 11 993 223 0 SO 0 63.6 605
12:01:48 11 993 223 0 S 0 59.6 600
12:04:47 11 993 220 0 N 0 59.2 597
12:07:49 11 993 220 0 S 0 59.4 588
12:10:47 11 992 223 0 S 0 59.3 591
12:13:48 11 993 225 0 SO 0 60.7 585
12:16:46 11 992 222 0 S 0 60.7 580
12:19:49 11 993 224 0 S 0 60 583
12:22:48 11 992 224 0 SW 0 60.5 579
12:25:50 11 993 224 0 SW 0 59.7 576
12:28:48 11 992 222 0 W 0 59.9 577
12:31:48 11 992 220 0 SO 0 60.4 571
12:34:49 11 992 219 0 SO 0 60.5 574
12:37:47 11 992 218 0 SW 0 60.6 571
12:40:48 11 992 220 0 SW 0 61.6 575
12:43:48 11 992 221 0 SW 0 61.8 573
12:46:48 11 992 219 0 SO 0 61.9 574
12:49:49 11 992 219 0 S 0 61.5 570
12:52:47 11 991 226 0 N 0 61.1 560
12:55:49 11 991 229 0 SW 0 61.3 557
12:58:48 11 991 228 0 SO 0 61.4 557
13:01:50 12 991 223 0 SW 0 59.1 559
13:04:48 12 991 223 0 SW 0 58.8 557
13:07:45 12 991 226 0 O 0 59.1 542
13:10:51 12 991 226 0 SW 0 59.6 542
13:13:46 11 991 227 0 S 0 59.1 535
13:16:47 11 991 230 0 SW 0 59.4 536
13:19:49 12 991 227 0 SO 0 60.2 530
13:22:49 12 991 226 0 S 0 60.3 542
13:25:47 12 991 226 0 SW 0 59.6 541
13:28:48 11 991 228 0 S 0 59.4 542
13:31:47 11 991 229 0 O 0 60.8 535
13:34:49 12 991 227 0 SO 0 61.1 535
13:37:47 12 991 232 0 SW 0 60.3 541
13:40:48 12 991 225 0 SO 0 60.8 543
13:43:49 12 991 218 0 SO 0 60.3 532
13:46:47 12 991 216 0 S 0 60.3 527
13:49:47 11 991 198 0 S 0 60.8 521
13:52:47 11 991 197 0 NW 0 61.6 517
13:55:47 11 991 195 0 S 0 62.1 521
13:58:47 11 991 190 0 SO 0 62.6 524
14:01:51 11 991 197 0 S 0 62.9 527
14:04:48 11 991 204 0 S 0 62.5 524
14:07:48 11 991 206 0 SO 0 63.4 527
14:10:48 11 991 210 0 SW 0 63.8 520
14:13:49 11 991 209 0 S 0 63.2 524
14:16:48 11 991 222 0 SO 0 63.6 527
14:19:48 11 991 222 0 SW 0 63.8 531
14:22:47 11 991 222 0 SW 0 64.3 521
14:25:48 11 991 224 0 S 0 62.6 518
14:28:50 11 990 226 0 SO 0 62.4 518
14:31:48 11 990 226 0 S 0 62.9 521
14:34:48 11 991 225 0 S 0 62.9 524
14:37:48 11 991 224 0 SW 0 62.8 526
14:40:48 11 991 227 0 SO 0 62.3 521
14:43:47 11 990 232 0 S 0 62.6 521
14:46:47 11 990 229 0 SW 0 62.9 521
14:49:48 11 990 226 0 S 0 62.5 521
14:52:48 11 990 225 0 NW 0 62.7 518
14:55:47 11 990 224 0 SO 0 63.1 512
14:58:47 11 990 233 0 O 0 63.1 511
15:01:48 11 990 239 0 S 0 63 506
15:04:48 11 989 239 0 W 0 63 507
15:07:49 11 990 236 0 S 0 62.8 509
15:10:48 11 989 234 0 S 0 62.8 507
15:13:48 11 989 237 0 W 0 63.2 506
15:16:47 11 989 231 0 SW 0 63.5 504
15:19:48 11 989 224 0 SO 0 63.2 509
15:22:50 11 989 230 0 SW 0 63.4 503
15:25:51 11 989 224 0 SO 0 63.1 499
15:28:48 11 988 221 0 SW 0 62.9 492
15:31:47 11 988 220 0 S 0 63.5 504
15:34:47 11 989 219 0 S 0 63.7 507
15:37:52 11 989 217 0 W 0 64 510
15:40:48 11 989 218 0 S 0 64.3 509
15:43:47 11 989 221 0 O 0 65.5 498
15:46:49 11 989 227 0 SW 0 65.9 487
15:49:48 11 988 218 0 S 0 66.4 494
15:52:47 11 989 218 0 NW 0 66.4 492
15:55:46 11 988 214 0 S 0 67.4 485
15:58:48 11 989 210 0 SO 0 67.9 492
16:01:47 11 988 210 0 S 0 67.7 485
16:04:49 11 988 224 0 SW 0 67.5 479
16:07:47 11 988 227 0 S 0 67.3 477
16:10:47 11 988 214 0 S 0 67.1 477
16:13:47 11 988 200 0 S 0 67.4 480
16:16:48 11 988 195 0 SO 0 67.5 483
16:19:49 10 988 191 0 S 0 67.7 480
16:22:47 10 988 194 0 O 0 67.8 486
16:25:46 10 988 199 0 SO 0 68 478
16:28:50 10 989 202 0 SO 0 68.7 480
16:31:48 10 988 211 0 S 0 68.6 483
16:34:48 10 987 190 0 S 0 69.1 483
16:37:48 10 987 181 0 S 0 69.5 489
16:40:48 10 988 177 0 S 0 69.3 471
16:43:48 10 988 173 0 S 0 70 468
16:46:47 10 988 152 0 S 0 69.8 465
16:49:47 10 988 174 0 S 0 70.1 468
16:52:46 10 988 193 0 SW 0 70.3 471
16:55:48 10 988 200 0 SW 0 70.8 473
16:58:47 10 988 190 0 SW 0 71 474
17:01:47 10 987 179 0 S 0 71.2 468
17:04:49 10 987 153 0 SO 0 71.5 466
17:07:49 10 987 147 0 S 0 72.5 473
17:10:46 10 987 147 0 S 0 72.7 478
17:13:47 10 987 151 0 S 0 72.8 469
17:16:47 10 987 155 0 SW 0 73.1 466
17:19:45 10 987 153 0 S 0 73 471
17:22:46 10 987 167 0 W 0 72.9 471
17:25:47 10 987 179 0 SW 0 72.8 465
17:28:46 10 987 165 0 SO 0 72.7 462
17:31:46 10 987 157 0 SO 0 72.2 462
17:34:49 9 987 149 0 SW 0 72.8 462
17:37:44 9 987 141 0 S 0 73.4 465
17:40:47 9 987 132 0 S 0 73.8 462
17:43:47 9 987 120 0 S 0 73.7 459
17:46:46 9 987 99 0 W 0 73.4 466
17:49:47 9 987 72 0 W 0 73.2 459
17:52:45 9 987 54 0 SW 0 73.3 457
17:55:48 9 987 51 0 SW 0 73.1 458
17:58:48 9 987 36 0 S 0 72.8 460
18:01:48 9 987 22 0 S 0 72.5 457
18:04:47 9 987 12 0 SO 0 72 456
18:07:47 9 987 9 0 S 0 71.8 454
18:10:46 9 987 5 0 SW 0 71.7 454
18:13:47 9 987 3 0 SW 0 71.6 448
18:16:44 9 987 3 0 S 0 71.4 454
18:19:44 9 987 0 0 SO 0 71.2 450
18:22:45 9 987 0 0 S 0 71.2 448
18:25:46 9 987 0 0 S 0 70.9 444
18:28:46 9 987 0 0 SW 0 71 444
18:31:45 9 987 0 0 S 0 71.1 453
18:34:45 9 987 0 0 S 0 71.5 448
18:37:47 9 987 0 0 SW 0 71.5 447
18:40:48 9 987 0 0 SW 0 71.7 445
18:43:45 9 987 0 0 SW 0 71.8 451
18:46:47 9 987 0 0 SW 0 71.7 448
18:49:47 9 987 0 0 O 0 71.7 442
18:52:45 9 987 0 0 O 0 71.7 448
18:55:46 9 987 0 0 S 0 72 442
18:58:47 9 987 0 0 SO 0 72.3 442
19:01:46 9 987 0 0 O 0 72.1 439
19:04:45 9 987 0 0 SO 0 71.6 447
19:07:31 8 988 0 0 SW 0 64.6 442
19:10:46 7 988 0 0 SW 0.2575 75.7 446
19:13:49 6 989 0 0 SW 0 82.7 437
19:16:46 5 989 0 0 SW 0 88.8 434
19:19:47 5 988 0 0 SW 0 93.1 433
19:22:44 4 990 0 0 W 0 93.6 433
19:25:44 4 989 0 0 N 0 94.5 430
19:28:46 4 989 0 0 W 0 95.6 429
19:31:46 4 991 0 0 W 0 96.4 433
19:34:45 4 990 0 0 W 0 96.6 430
19:37:45 4 990 0 0 O 0 96.6 433
19:40:46 4 990 0 0 W 0 96.6 428
19:43:48 4 990 0 0 SW 0 96.6 431
19:46:47 4 990 0 0 NO 0 96.6 430
19:49:45 4 991 0 0 W 0 96.6 424
19:52:45 4 991 0 0 W 0 96.6 431
19:55:48 4 990 0 0 W 0 96.6 427
19:58:44 4 991 0 0 0 96.6 427
20:01:46 4 990 0 0 SW 0 96.6 427
20:04:46 4 991 0 0 SW 0 96.6 427
20:07:45 4 991 0 0 SW 0 96.6 424
20:10:49 4 990 0 0 NW 0 96.6 419
20:13:47 4 991 0 0 NO 0 96.6 418
20:16:44 4 991 0 0 W 0 96.6 421
20:19:45 4 991 0 0 W 0 96.6 416
20:22:47 4 991 0 0 W 0 96.6 422
20:25:49 4 991 0 0 NW 0 96.6 421
20:28:45 4 991 0 0 W 0 96.6 427
20:31:48 4 991 0 0 W 0 96.6 424
20:34:47 4 991 0 0 SW 0 96.6 427
20:37:47 4 991 0 0 SW 0 96.6 424
20:40:45 4 991 0 0 S 0 96.6 427
20:43:48 4 991 0 0 NO 0 96.6 427
20:46:44 4 991 0 0 S 0 96.6 427
20:49:46 4 991 0 0 S 0 96.6 424
20:52:45 4 991 0 0 SW 0 96.6 430
20:55:46 4 991 0 0 S 0 96.6 416
20:58:47 4 991 0 0 SW 0 96.5 415
21:01:48 4 991 0 0 NW 0 96.3 419
21:04:47 4 991 0 0 NW 0 96.1 421
21:07:47 4 991 0 0 SW 0 96.4 418
21:10:48 4 991 0 0 W 0 96.2 422
21:13:48 4 992 0 0 SO 0 96.2 422
21:16:45 4 991 0 0 S 0 96.4 425
21:19:47 4 991 0 0 NW 0 96.4 424
21:22:46 4 992 0 0 SO 0 96.3 419
21:25:45 4 991 0 0 O 0 95.8 419
21:28:46 4 992 0 0 NW 0 95.2 421
21:31:48 4 992 0 0 SO 0 94.6 430
21:34:44 4 992 0 0 S 0 94.6 430
21:37:47 4 992 0 0 SW 0 94.5 424
21:40:45 4 991 0 0 O 0 95 422
21:43:45 4 991 0 0 SW 0 95.1 427
21:46:45 4 992 0 0 S 0 95.2 424
21:49:45 3 992 0 0 S 0 95 416
21:52:45 3 991 0 0 SW 0 95.1 419
21:55:45 3 991 0 0 SW 0 95.3 418
21:58:45 3 992 0 0 NO 0 95.4 415
22:01:47 3 992 0 0 O 0 95.5 419
22:04:47 3 993 0 0 S 0 95.3 427
22:07:46 3 992 0 0 W 0 95.3 429
22:10:47 3 993 0 0 W 0 94.9 428
22:13:48 3 992 0 0 NW 0 94.7 419
22:16:47 3 992 0 0 SW 0 94.7 421
22:19:46 3 993 0 0 S 0 94.9 423
22:22:48 4 994 0 0 W 0 95 425
22:25:46 3 993 0 0 SW 0 94.7 414
22:28:46 3 993 0 0 SO 0 94.3 413
22:31:47 3 994 0 0 SW 0 94.2 416
22:34:46 3 994 0 0 W 0 94.4 419
22:37:47 3 995 0 0 SO 0 94.3 421
22:40:46 3 994 0 0 S 0 94.1 421
22:43:46 3 994 0 0 SW 0 93.7 413
22:46:47 3 994 0 0 NW 0 93.1 413
22:49:49 3 995 0 0 SW 0 92.9 424
22:52:46 3 994 0 0 SW 0 92.4 425
22:55:47 3 994 0 0 W 0 92.4 422
22:58:46 3 994 0 0 W 0 92 422
23:01:47 3 994 0 0 NW 0 91.9 420
23:04:46 3 994 0 0 SW 0 91.6 410
23:07:46 3 995 0 0 NW 0 91.4 410
23:10:48 3 994 0 0 O 0 90.8 411
23:13:48 3 994 0 0 NW 0 90.8 413
23:16:47 3 995 0 0 S 0 90.8 413
23:19:45 3 995 0 0 W 0 90.7 413
23:22:46 3 994 0 0 W 0 90.7 415
23:25:47 3 995 0 0 W 0 90.7 421
23:28:47 3 995 0 0 NW 0 91 424
23:31:45 3 995 0 0 W 0 91.3 424
23:34:47 3 995 0 0 NW 0 91.4 424
23:37:48 3 995 0 0 SW 0 91.7 424
23:40:47 3 995 0 0 SW 0 91.8 424
23:43:46 3 995 0 0 S 0 91.6 433
23:46:46 3 995 0 0 SW 0 91 433
23:49:46 3 995 0 0 NW 0 90.7 424
23:52:44 3 995 0 0 W 0 90.5 421
23:55:46 3 995 0 0 NW 0 90.2 422
23:58:45 3 995 0 0 N 0 90.1 419

Letzte Änderung : 22-Jul-2022
Copyright Jens Köhler, Wolfsburg, Obere Dorfstraße 10d